Hourly Data Report for April 10, 2018

MIRAMICHI RCS
NEW BRUNSWICK
Current Station Operator: ECCC - MSC

47°00'34.000" N
65°27'54.000" W
33.00 m
8100989
71744
ACQ

Download Data

Hourly Data (April 2018)
Hourly Data Report for April 10, 2018
TIME
LST
Temp Definition
°C
Dew Point Definition
°C
Rel Hum Definition
%
Precip. Amount Definition
mm

Wind Dir Definition
10's deg

Wind Spd Definition
km/h
Visibility Definition
km
Stn Press Definition
kPa
Hmdx Definition


Wind Chill Definition


Weather Definition


00:00 -6.0 -13.2 57 0.0 24 14   101.31   -12 LegendNANA
01:00 -5.9 -13.3 56 0.0 26 10   101.32   -10 LegendNANA
02:00 -8.0 -13.5 64 0.0 22 15   101.37   -14 LegendNANA
03:00 -7.1 -13.5 60 0.0 25 11   101.41   -12 LegendNANA
04:00 -7.9 -13.6 63 0.0 25 12   101.45   -13 LegendNANA
05:00 -8.4 -13.8 65 0.0 27 11   101.49   -14 LegendNANA
06:00 -8.8 -13.9 66 0.0 26 10   101.57   -14 LegendNANA
07:00 -7.4 -13.5 61 0.0 26 9   101.65   -12 LegendNANA
08:00 -5.5 -12.5 58 0.0 23 14   101.72   -11 LegendNANA
09:00 -2.3 -12.6 45 0.0 26 10   101.75   -6 LegendNANA
10:00 -1.6 -12.1 45 0.0 22 12   101.75   -6 LegendNANA
11:00 -0.2 -10.6 45 0.0 22 16   101.71   -5 LegendNANA
12:00 1.1 -10.6 41 0.0 23 14   101.63     LegendNANA
13:00 2.4 -11.7 34 0.0 23 19   101.55     LegendNANA
14:00 3.4 -12.3 31 0.0 26 19   101.48     LegendNANA
15:00 3.4 -11.1 34 0.0 24 14   101.44     LegendNANA
16:00 4.1 -12.1 30 0.0 27 15   101.43     LegendNANA
17:00 3.8 -11.5 32 0.0 27 15   101.43     LegendNANA
18:00 3.5 -11.4 33 0.0 27 10   101.43     LegendNANA
19:00 2.2 -11.1 36 0.0 27 7   101.45     LegendNANA
20:00 -0.7 -8.5 56 0.0 26 6   101.51   -3 LegendNANA
21:00 -1.4 -9.2 55 0.0 25 4   101.54   -3 LegendNANA
22:00 -3.1 -9.2 63 0.0 25 3   101.53   -4 LegendNANA
23:00 -3.6 -8.0 72 0.0 26 5   101.55   -6 LegendNANA

Notes on Data Quality.

Legend

  • E = Estimated
  • M = Missing
  • NA = Not Available*
  • [empty] = Indicates an unobserved value
Date modified: